REH552 KRDD-KBOI

Flight info

Callsign REH552
Flight time N/A
Altitude 39000
Route PRNCS SADYL4
Aircraft LJ35/M-SGHRWXY/SB1

Departure

Time 2026-05-09 00:39
Airport Redding Municipal Airport (KRDD)

Arrival

Time N/A
Airport Boise Air Terminal/Gowen Field (KBOI)
Time Latitude Longitude Altitude Speed Heading
2026-05-09 00:29 40.51597 -122.29864 505 ft 0 kts 198°
2026-05-09 00:34 40.51595 -122.29865 505 ft 1 kts 183°
2026-05-09 00:34 40.51585 -122.29856 505 ft 3 kts 112°
2026-05-09 00:34 40.51590 -122.29813 505 ft 6 kts 60°
2026-05-09 00:35 40.51633 -122.29767 505 ft 10 kts 43°
2026-05-09 00:35 40.51686 -122.29702 505 ft 11 kts 56°
2026-05-09 00:35 40.51710 -122.29634 505 ft 5 kts 28°
2026-05-09 00:35 40.51746 -122.29629 505 ft 6 kts
2026-05-09 00:36 40.51798 -122.29629 505 ft 9 kts 359°
2026-05-09 00:36 40.51867 -122.29630 505 ft 11 kts 360°
2026-05-09 00:36 40.51952 -122.29629 505 ft 13 kts
2026-05-09 00:36 40.52018 -122.29606 505 ft 8 kts 57°
2026-05-09 00:37 40.52023 -122.29587 505 ft 0 kts 81°
2026-05-09 00:38 40.52024 -122.29580 505 ft 2 kts 81°
2026-05-09 00:38 40.52028 -122.29542 505 ft 6 kts 85°
2026-05-09 00:38 40.52016 -122.29488 505 ft 6 kts 155°
2026-05-09 00:38 40.51957 -122.29485 505 ft 16 kts 180°
2026-05-09 00:39 40.51682 -122.29489 505 ft 71 kts 182°
2026-05-09 00:39 40.50932 -122.29489 505 ft 139 kts 181°
2026-05-09 00:39 40.49839 -122.29514 676 ft 171 kts 180°
2026-05-09 00:39 40.48609 -122.29546 1193 ft 181 kts 180°
2026-05-09 00:40 40.47388 -122.29382 1995 ft 174 kts 166°
2026-05-09 00:40 40.46282 -122.28783 2533 ft 179 kts 150°
2026-05-09 00:40 40.45246 -122.27745 3104 ft 195 kts 136°
2026-05-09 00:41 40.43713 -122.24704 4355 ft 197 kts 110°
2026-05-09 00:41 40.43538 -122.22988 4941 ft 187 kts 83°
2026-05-09 00:41 40.43941 -122.21406 5473 ft 184 kts 59°
2026-05-09 00:41 40.44766 -122.20141 5892 ft 184 kts 38°
2026-05-09 00:42 40.45882 -122.19240 6122 ft 197 kts 30°
2026-05-09 00:42 40.46661 -122.18597 6273 ft 202 kts 34°
2026-05-09 00:42 40.48249 -122.17125 6656 ft 212 kts 30°
2026-05-09 00:42 40.49098 -122.16565 7119 ft 200 kts 22°
2026-05-09 00:43 40.50365 -122.15951 7698 ft 193 kts 19°
2026-05-09 00:43 40.51627 -122.15264 8006 ft 199 kts 23°
2026-05-09 00:43 40.52860 -122.14396 8374 ft 203 kts 29°
2026-05-09 00:43 40.53987 -122.13290 8832 ft 201 kts 40°
2026-05-09 00:44 40.54927 -122.11971 9334 ft 194 kts 45°
2026-05-09 00:44 40.55809 -122.10635 9766 ft 193 kts 45°
2026-05-09 00:44 40.56693 -122.09285 10223 ft 197 kts 46°
2026-05-09 00:44 40.57610 -122.07894 10687 ft 205 kts 46°
2026-05-09 00:45 40.58572 -122.06462 11150 ft 212 kts 44°
2026-05-09 00:45 40.59595 -122.05039 11608 ft 218 kts 43°
2026-05-09 00:45 40.60607 -122.03546 12061 ft 224 kts 51°
2026-05-09 00:45 40.61478 -122.01823 12514 ft 221 kts 53°
2026-05-09 00:46 40.62221 -122.00165 12929 ft 200 kts 54°
2026-05-09 00:46 40.62854 -121.98649 13327 ft 177 kts 54°
2026-05-09 00:46 40.63374 -121.97305 13686 ft 153 kts 51°
2026-05-09 00:46 40.63777 -121.96094 13971 ft 138 kts 52°
2026-05-09 00:47 40.64156 -121.94878 13889 ft 151 kts 53°
2026-05-09 00:47 40.64562 -121.93612 14057 ft 144 kts 52°
2026-05-09 00:47 40.64931 -121.92408 14144 ft 146 kts 53°
2026-05-09 00:47 40.65338 -121.91141 14197 ft 149 kts 52°
2026-05-09 00:48 40.65715 -121.89932 14390 ft 143 kts 52°
2026-05-09 00:48 40.66110 -121.88665 14377 ft 151 kts 53°
2026-05-09 00:48 40.66498 -121.87426 14521 ft 145 kts 52°
2026-05-09 00:48 40.66881 -121.86190 14533 ft 149 kts 52°
2026-05-09 00:49 40.67283 -121.84920 14608 ft 148 kts 52°
2026-05-09 00:49 40.67667 -121.83682 14701 ft 146 kts 52°
2026-05-09 00:49 40.68066 -121.82418 14719 ft 151 kts 52°
2026-05-09 00:49 40.68459 -121.81166 14903 ft 145 kts 52°
2026-05-09 00:50 40.68848 -121.79919 14917 ft 151 kts 52°
2026-05-09 00:50 40.69250 -121.78639 15038 ft 147 kts 53°
2026-05-09 00:50 40.69623 -121.77389 15092 ft 149 kts 53°
2026-05-09 00:50 40.70023 -121.76100 15110 ft 152 kts 52°
2026-05-09 00:51 40.70407 -121.74860 15252 ft 146 kts 52°
2026-05-09 00:51 40.70801 -121.73592 15228 ft 153 kts 52°
2026-05-09 00:51 40.71208 -121.72307 15357 ft 149 kts 52°
2026-05-09 00:51 40.71595 -121.71054 15446 ft 149 kts 52°
2026-05-09 00:52 40.72003 -121.69766 15475 ft 154 kts 52°
2026-05-09 00:52 40.72428 -121.68448 15532 ft 158 kts 52°
2026-05-09 00:52 40.72867 -121.67110 15596 ft 161 kts 52°
2026-05-09 00:52 40.73329 -121.65741 15664 ft 165 kts 52°
2026-05-09 00:53 40.73815 -121.64340 15737 ft 171 kts 52°
2026-05-09 00:53 40.74341 -121.62890 15816 ft 178 kts 49°
2026-05-09 00:53 40.75357 -121.62097 15029 ft 196 kts 336°
2026-05-09 00:53 40.75391 -121.63835 11160 ft 341 kts 195°
2026-05-09 00:54 40.73221 -121.63440 12775 ft 296 kts 153°
2026-05-09 00:54 40.71479 -121.62246 14032 ft 245 kts 135°
2026-05-09 00:54 40.71189 -121.60442 15109 ft 217 kts 65°
2026-05-09 00:54 40.71796 -121.58124 14148 ft 288 kts 73°
2026-05-09 00:55 40.72009 -121.55499 14598 ft 290 kts 87°
2026-05-09 00:55 40.71279 -121.52994 14739 ft 300 kts 122°
2026-05-09 00:55 40.69708 -121.51225 14995 ft 296 kts 141°
2026-05-09 00:55 40.69157 -121.49381 15829 ft 264 kts 63°
2026-05-09 00:56 40.50620 -122.29896 505 ft 0 kts 298°
2026-05-09 00:57 40.50620 -122.29897 505 ft 1 kts 298°
2026-05-09 00:58 40.50623 -122.29906 505 ft 2 kts 296°
2026-05-09 00:58 40.50632 -122.29941 505 ft 8 kts 280°
2026-05-09 00:58 40.50595 -122.30008 505 ft 0 kts 144°